This demonstration page uses our WeatherBlox Daily Observations layout. Learn more.

Left ArrowRight Arrow

Hourly Observations for September 26, 2022

Temp ( °F °C ) Dew Point ( °F °C ) Humidity (%) Winds ( mph kmh ) Pressure ( in mb ) Visibility ( mi km ) Precip ( " mm )
12:53 am 00:53 Clear 74 23.3 56 13.3 53 53 ENE 12 19 29.99 1016 10 16 0.00 0.00
1:53 am 01:53 Clear 72 22.2 56 13.3 57 57 ENE 10 17 29.98 1015 10 16 0.00 0.00
2:53 am 02:53 Clear 72 22.2 54 12.2 53 53 ENE 10 17 29.99 1016 10 16 0.00 0.00
3:53 am 03:53 Clear 70 21.1 55 12.8 59 59 ENE 8 13 30.00 1016 10 16 0.00 0.00
4:53 am 04:53 Clear 68 20 50 10 53 53 ENE 7 11 30.01 1016 10 16 0.00 0.00
5:53 am 05:53 Clear 68 20 47 8.3 47 47 ENE 8 13 30.03 1017 10 16 0.00 0.00
6:53 am 06:53 Clear 68 20 44 6.7 42 42 E 13 20 30.05 1018 10 16 0.00 0.00
7:53 am 07:53 Sunny 67 19.4 44 6.7 44 44 E 9 15 30.08 1019 10 16 0.00 0.00
8:53 am 08:53 Sunny 68 20 44 6.7 42 42 E 7 11 30.12 1020 10 16 0.00 0.00
9:53 am 09:53 Sunny 72 22.2 47 8.3 41 41 E 13 20 30.13 1020 10 16 0.00 0.00
10:53 am 10:53 undefined 76 24.4 53 11.7 45 45 ESE 15 24 30.14 1021 10 16 0.00 0.00
11:53 am 11:53 Sunny 77 25 56 13.3 48 48 undefined N/A 30.14 1021 10 16 0.00 0.00
12:53 pm 12:53 Sunny 80 26.7 54 12.2 41 41 SE 14 22 30.11 1020 10 16 0.00 0.00
1:53 pm 13:53 Sunny 81 27.2 54 12.2 39 39 VRB 5 7 30.09 1019 10 16 0.00 0.00
2:53 pm 14:53 Sunny 83 28.3 53 11.7 36 36 E 5 7 30.05 1018 10 16 0.00 0.00
3:53 pm 15:53 Sunny 85 29.4 50 10 30 30 undefined N/A 30.02 1017 10 16 0.00 0.00
4:53 pm 16:53 Sunny 86 30 49 9.4 28 28 ESE 8 13 30.01 1016 10 16 0.00 0.00
5:53 pm 17:53 Sunny 85 29.4 49 9.4 29 29 E 8 13 29.99 1016 10 16 0.00 0.00
6:53 pm 18:53 Sunny 84 28.9 48 8.9 29 29 SE 3 6 30.00 1016 10 16 0.00 0.00
7:53 pm 19:53 Clear 80 26.7 49 9.4 34 34 E 6 9 30.01 1016 10 16 0.00 0.00
8:53 pm 20:53 Clear 76 24.4 49 9.4 39 39 E 6 9 30.03 1017 10 16 0.00 0.00
9:53 pm 21:53 Clear 73 22.8 49 9.4 42 42 E 6 9 30.05 1018 10 16 0.00 0.00
10:53 pm 22:53 Clear 70 21.1 49 9.4 47 47 E 6 9 30.06 1018 10 16 0.00 0.00
11:53 pm 23:53 Clear 69 20.6 48 8.9 47 47 ESE 7 11 30.07 1018 10 16 0.00 0.00

Powered by AerisWeather